User: anonymous   Login
Location: Unspecified
(0.0000°N, 0.0000°E)
Time: 00:15:36
(UTC+00:00)
Language:

Kosmos-2184 - Orbit

View from above orbital plane
View from above orbital plane
View from above satellite
View from above satellite

Ground track
Ground track

The orbit data is extracted from the following two-line orbital elements,

1 21937U 92020A   17326.47553736 +.00000049 +00000-0 +36307-4 0  9990
2 21937 082.9326 269.1899 0032468 210.5960 287.6940 13.73145921282930
Epoch (UTC): 22 November 2017 11:24:46
Eccentricity: 0.0032468
inclination: 82.9326°
perigee height: 964 km
apogee height: 1012 km
right ascension of ascending node: 269.1899°
argument of perigee: 210.5960°
revolutions per day: 13.73145921
mean anomaly at epoch: 287.6940°
orbit number at epoch: 28293

The dashed part of the orbit path shows where the satellite is in the earth's shadow,  

DLR